Location: Unspecified
(0.0000°N, 0.0000°E)
Time: 15:57:07
(UTC+00:00)

Explorer 7 - Visible Passes

Search period start: 25 July 2014 00:00
Search period end: 04 August 2014 00:00
Orbit: 492 x 707 km, 50.3° (Epoch: 25 July)

Date Brightness Start Highest point End Pass type
(mag) Time Alt. Az. Time Alt. Az. Time Alt. Az.
29 Jul 9.5 20:07:41 10° N 20:08:54 15° NNE 20:08:54 15° NNE visible
30 Jul 9.1 20:17:15 10° NNW 20:19:28 25° N 20:19:28 25° N visible
31 Jul 9.0 20:27:34 10° NW 20:30:07 30° NW 20:30:07 30° NW visible
01 Aug 8.8 18:58:31 10° N 19:02:14 21° NE 19:04:09 17° E visible
01 Aug 9.4 20:38:33 10° WNW 20:40:52 23° W 20:40:52 23° W visible
02 Aug 7.7 19:07:59 10° NNW 19:12:45 45° NE 19:14:59 28° ESE visible
02 Aug 10.1 20:50:36 10° W 20:51:43 13° WSW 20:51:43 13° WSW visible
03 Aug 7.3 19:18:14 10° NW 19:23:15 82° SW 19:25:53 29° SSE visible
